Location: Noordwijk
(52.2400°N, 4.4500°E)
Time: 17:13:02
(UTC+00:00)

XW-2B - Visible Passes

Search period start: 30 November 2022 00:00
Search period end: 10 December 2022 00:00
Orbit: 491 x 510 km, 97.5° (Epoch: 30 November)

Date Brightness Start Highest point End Pass type
(mag) Time Alt. Az. Time Alt. Az. Time Alt. Az.
30 Nov ? 05:18:37 10° NE 05:21:40 25° E 05:24:42 10° SSE visible
30 Nov ? 17:35:39 10° SSW 17:38:57 31° W 17:42:15 10° NNW visible
01 Dec ? 04:59:38 10° NE 05:01:57 16° E 05:04:16 10° SE visible
01 Dec ? 06:32:27 10° N 06:36:00 51° WNW 06:39:32 10° SSW visible
01 Dec ? 17:15:44 10° S 17:19:18 49° W 17:22:54 10° NNW visible
02 Dec ? 04:41:50 10° E 04:42:10 10° E 04:42:28 10° E visible
02 Dec ? 06:12:48 10° NNE 06:16:28 85° WNW 06:20:06 10° SSW visible
02 Dec ? 16:56:01 10° SSE 16:59:42 83° WSW 17:03:23 10° NNW visible
03 Dec ? 05:53:16 10° NNE 05:56:53 58° ESE 06:00:27 10° S visible
03 Dec ? 16:36:31 10° SSE 16:40:08 60° ENE 16:43:46 10° N visible
03 Dec ? 18:12:15 10° WSW 18:14:16 14° W 18:16:17 10° NW visible
04 Dec ? 05:33:50 10° NNE 05:37:13 35° E 05:40:34 10° SSE visible
04 Dec ? 16:17:12 10° SE 16:20:36 37° ENE 16:24:01 10° N visible
04 Dec ? 17:51:35 10° SW 17:54:29 22° W 17:57:23 10° NW visible
05 Dec ? 05:14:33 10° NE 05:17:29 22° E 05:20:24 10° SSE visible
05 Dec ? 06:47:59 10° N 06:51:21 35° WNW 06:54:41 10° SW visible
05 Dec ? 17:31:23 10° SSW 17:34:45 34° W 17:38:07 10° NNW visible
06 Dec ? 04:55:37 10° NE 04:57:42 14° E 04:59:46 10° SE visible
06 Dec ? 06:28:13 10° N 06:31:49 57° WNW 06:35:22 10° SSW visible
06 Dec ? 17:11:27 10° S 17:15:03 55° W 17:18:40 10° NNW visible
07 Dec ? 06:08:32 10° NNE 06:12:12 86° ESE 06:15:51 10° SSW visible
07 Dec ? 16:51:45 10° SSE 16:55:24 88° ENE 16:59:04 10° NNW visible
08 Dec ? 05:48:57 10° NNE 05:52:31 51° E 05:56:05 10° S visible
08 Dec ? 16:32:13 10° SSE 16:35:47 53° ENE 16:39:22 10° N visible
08 Dec ? 18:07:36 10° SW 18:09:51 16° W 18:12:07 10° NW visible
09 Dec ? 05:29:29 10° NNE 05:32:48 31° E 05:36:05 10° SSE visible
09 Dec ? 16:12:54 10° SE 16:16:13 33° ENE 16:19:32 10° N visible
09 Dec ? 17:47:01 10° SSW 17:50:01 24° W 17:53:03 10° NW visible
